Flag for Canada Weather past 2 weeks in Montreal, Quebec, Canada

Now
23 °F

Scattered clouds.


Feels Like: 13 °F
Forecast: 19 / 26 °F
Wind: 9 mph from West

Location: Montreal - Pierre Elliot Trudeau International Aiport

Current Time: Dec 19, 2014 at 12:02:04 PM

Latest Report: Dec 19, 2014 at 11:00 AM


Visibility: 15 mi

Pressure: 30.11 "Hg

Humidity: 74%

Dew point: 16 °F

Location of MontrealLocation

Historic Weather in Montreal — Graph

°F

Montreal temperature yesterday

Maximum temperature yesterday: 32 °F (at 12:00 AM)
Minimum temperature yesterday: 28 °F (at 9:00 PM)
Average temperature yesterday: 31 °F

Past Weeks' High & Low Weather Summary

 TemperatureHumidityPressure
High34 °F (Dec 17, 12:00 AM)100% (Dec 6, 6:55 AM)30.84 "Hg (Dec 6, 6:55 AM)
Low9 °F (Dec 5, 6:00 AM)41% (Dec 7, 4:00 PM)29.55 "Hg (Dec 11, 5:00 AM)
Average26 °F83%30.10 "Hg
* Reported Dec 4 11:00 AM — Dec 19 11:00 AM, Montreal, Weather by CustomWeather, © 2014

Note: Actual official high and low records may vary slightly from our data, if they occured in-between our weather recording intervals... More about our weather records

Advertising

Montreal weather history for previous 24 hours

 ConditionsComfort  
Time TempWeatherWind HumidityBarometerVisibility
11:00 AM
Dec 19
23 °FScattered clouds.9 mph74%30.11 "Hg15 mi
10:00 AM23 °FPartly sunny.14 mph68%30.11 "Hg15 mi
9:00 AM23 °FPartly sunny.13 mph74%30.08 "Hg15 mi
8:00 AM23 °FPartly sunny.9 mph80%30.06 "Hg15 mi
7:00 AM25 °FPassing clouds.6 mph80%30.03 "Hg15 mi
6:00 AM25 °FPassing clouds.6 mph80%30.01 "Hg15 mi
5:00 AM25 °FPassing clouds.9 mph80%29.99 "Hg15 mi
4:00 AM27 °FPassing clouds.9 mph74%29.98 "Hg15 mi
3:00 AM27 °FPassing clouds.8 mph74%29.98 "Hg15 mi
2:00 AM27 °FPassing clouds.9 mph80%29.97 "Hg15 mi
1:00 AM28 °FPassing clouds.12 mph74%29.96 "Hg15 mi
12:45 AM28 °FMostly cloudy.8 mph74%29.95 "Hg15 mi
12:00 AM28 °FLight snow. Overcast.9 mph80%29.95 "Hg15 mi
11:00 PM
Dec 18
28 °FLight snow. Overcast.8 mph86%29.95 "Hg15 mi
10:00 PM28 °FLight snow. Overcast.8 mph86%29.94 "Hg15 mi
9:46 PM28 °FLight snow. Overcast.10 mph86%29.95 "Hg15 mi
9:00 PM28 °FMostly cloudy.9 mph86%29.95 "Hg15 mi
8:00 PM30 °FMostly cloudy.12 mph80%29.95 "Hg15 mi
7:00 PM30 °FMostly cloudy.10 mph80%29.94 "Hg15 mi
6:00 PM30 °FMostly cloudy.12 mph80%29.93 "Hg15 mi
5:00 PM30 °FMostly cloudy.10 mph80%29.92 "Hg15 mi
4:00 PM32 °FMostly cloudy.9 mph80%29.90 "Hg15 mi
3:00 PM32 °FMostly cloudy.14 mph80%29.88 "Hg15 mi
2:00 PM32 °FMostly cloudy.12 mph80%29.88 "Hg15 mi
1:47 PM32 °FMostly cloudy.13 mph80%29.87 "Hg15 mi
1:00 PM32 °FLight snow. Mostly cloudy.10 mph87%29.87 "Hg15 mi
12:00 PM32 °FLight snow. Ice fog.12 mph87%29.87 "Hg6 mi
Weather by CustomWeather, © 2014

See weather overviewHow to use our weather pages